TimeEDT,TemperatureF,Dew PointF,Humidity,Sea Level PressureIn,VisibilityMPH,Wind Direction,Wind SpeedMPH,Gust SpeedMPH,PrecipitationIn,Events,Conditions,WindDirDegrees,DateUTC
12:15 AM,69.8,66.2,88,30.06,8.0,SE,4.6,-,N/A,,Clear,130,2013-08-30 04:15:00
12:35 AM,71.6,68.0,88,30.06,9.0,Calm,Calm,-,N/A,,Clear,0,2013-08-30 04:35:00
12:55 AM,69.8,66.2,88,30.06,5.0,Calm,Calm,-,N/A,,Partly Cloudy,0,2013-08-30 04:55:00
1:15 AM,71.6,68.0,88,30.06,9.0,Calm,Calm,-,N/A,,Mostly Cloudy,0,2013-08-30 05:15:00
1:35 AM,71.6,68.0,88,30.06,10.0,Calm,Calm,-,N/A,,Overcast,0,2013-08-30 05:35:00
1:55 AM,71.6,68.0,88,30.06,10.0,South,3.5,-,N/A,,Overcast,170,2013-08-30 05:55:00
2:15 AM,71.6,68.0,88,30.06,10.0,South,3.5,-,N/A,,Overcast,190,2013-08-30 06:15:00
2:35 AM,71.6,68.0,88,30.06,9.0,South,3.5,-,N/A,,Overcast,190,2013-08-30 06:35:00
2:55 AM,71.6,68.0,88,30.06,10.0,South,4.6,-,N/A,,Overcast,170,2013-08-30 06:55:00
3:15 AM,71.6,68.0,88,30.06,10.0,SSE,3.5,-,N/A,,Overcast,160,2013-08-30 07:15:00
3:35 AM,71.6,68.0,88,30.06,9.0,South,3.5,-,N/A,,Overcast,170,2013-08-30 07:35:00
3:55 AM,71.6,66.2,83,30.05,9.0,South,3.5,-,N/A,,Overcast,190,2013-08-30 07:55:00
4:15 AM,71.6,66.2,83,30.05,10.0,SW,3.5,-,N/A,,Overcast,220,2013-08-30 08:15:00
4:35 AM,69.8,66.2,88,30.05,10.0,West,5.8,-,N/A,,Overcast,260,2013-08-30 08:35:00
4:55 AM,69.8,66.2,88,30.05,9.0,Calm,Calm,-,N/A,,Mostly Cloudy,0,2013-08-30 08:55:00
5:15 AM,69.8,66.2,88,30.06,8.0,Calm,Calm,-,N/A,,Mostly Cloudy,0,2013-08-30 09:15:00
5:35 AM,69.8,66.2,88,30.06,9.0,SSE,4.6,-,N/A,,Overcast,150,2013-08-30 09:35:00
5:55 AM,69.8,66.2,88,30.06,10.0,SSE,4.6,-,N/A,,Overcast,150,2013-08-30 09:55:00
6:15 AM,69.8,66.2,88,30.06,10.0,SSE,4.6,-,N/A,,Overcast,160,2013-08-30 10:15:00
6:35 AM,69.8,66.2,88,30.06,9.0,SSE,4.6,-,N/A,,Overcast,160,2013-08-30 10:35:00
6:55 AM,69.8,66.2,88,30.07,9.0,SSE,4.6,-,N/A,,Overcast,160,2013-08-30 10:55:00
7:15 AM,71.6,66.2,83,30.07,9.0,South,3.5,-,N/A,,Overcast,170,2013-08-30 11:15:00
7:35 AM,71.6,66.2,83,30.07,10.0,South,5.8,-,N/A,,Overcast,170,2013-08-30 11:35:00
7:55 AM,71.6,66.2,83,30.07,10.0,South,3.5,-,N/A,,Overcast,180,2013-08-30 11:55:00
8:15 AM,71.6,66.2,83,30.07,10.0,South,5.8,-,N/A,,Overcast,170,2013-08-30 12:15:00
8:35 AM,71.6,66.2,83,30.07,10.0,SSW,3.5,-,N/A,,Overcast,210,2013-08-30 12:35:00
8:55 AM,71.6,66.2,83,30.08,10.0,Calm,Calm,-,N/A,,Overcast,0,2013-08-30 12:55:00
9:15 AM,73.4,68.0,83,30.08,9.0,SW,3.5,-,N/A,,Overcast,220,2013-08-30 13:15:00
9:35 AM,73.4,68.0,83,30.08,8.0,SSW,5.8,-,N/A,,Overcast,200,2013-08-30 13:35:00
9:55 AM,75.2,69.8,83,30.08,8.0,South,4.6,-,N/A,,Overcast,170,2013-08-30 13:55:00
10:15 AM,77.0,69.8,78,30.07,10.0,SSW,6.9,-,N/A,,Overcast,210,2013-08-30 14:15:00
10:35 AM,78.8,69.8,74,30.06,10.0,SW,5.8,-,N/A,,Mostly Cloudy,220,2013-08-30 14:35:00
10:55 AM,78.8,69.8,74,30.06,10.0,South,5.8,-,N/A,,Mostly Cloudy,190,2013-08-30 14:55:00
11:15 AM,78.8,69.8,74,30.05,10.0,West,5.8,-,N/A,,Mostly Cloudy,260,2013-08-30 15:15:00
11:35 AM,80.6,69.8,70,30.05,10.0,SW,6.9,-,N/A,,Scattered Clouds,220,2013-08-30 15:35:00
11:55 AM,80.6,69.8,70,30.05,10.0,SW,4.6,-,N/A,,Clear,220,2013-08-30 15:55:00
12:15 PM,80.6,69.8,70,30.04,10.0,SSW,5.8,-,N/A,,Partly Cloudy,210,2013-08-30 16:15:00
12:35 PM,80.6,69.8,70,30.04,10.0,SSW,4.6,-,N/A,,Mostly Cloudy,210,2013-08-30 16:35:00
12:55 PM,82.4,69.8,66,30.03,10.0,SW,9.2,-,N/A,,Mostly Cloudy,220,2013-08-30 16:55:00
1:15 PM,84.2,68.0,58,30.02,10.0,SSW,5.8,-,N/A,,Scattered Clouds,210,2013-08-30 17:15:00
1:35 PM,84.2,68.0,58,30.01,10.0,SSW,5.8,-,N/A,,Partly Cloudy,200,2013-08-30 17:35:00
1:55 PM,82.4,68.0,62,30.01,10.0,SSW,8.1,-,N/A,,Mostly Cloudy,210,2013-08-30 17:55:00
2:15 PM,84.2,68.0,58,30.00,10.0,WSW,3.5,-,N/A,,Scattered Clouds,240,2013-08-30 18:15:00
2:35 PM,84.2,66.2,55,29.99,10.0,SSW,9.2,-,N/A,,Partly Cloudy,200,2013-08-30 18:35:00
2:55 PM,84.2,68.0,58,29.99,10.0,SSW,8.1,-,N/A,,Clear,210,2013-08-30 18:55:00
3:15 PM,84.2,68.0,58,29.98,10.0,South,9.2,-,N/A,,Mostly Cloudy,190,2013-08-30 19:15:00
3:35 PM,84.2,66.2,55,29.98,10.0,SW,6.9,-,N/A,,Mostly Cloudy,220,2013-08-30 19:35:00
3:55 PM,84.2,66.2,55,29.97,10.0,South,4.6,-,N/A,,Scattered Clouds,190,2013-08-30 19:55:00
4:15 PM,84.2,68.0,58,29.97,10.0,SSW,6.9,-,N/A,,Mostly Cloudy,200,2013-08-30 20:15:00
4:35 PM,84.2,68.0,58,29.96,10.0,SSW,6.9,-,N/A,,Partly Cloudy,200,2013-08-30 20:35:00
4:55 PM,84.2,66.2,55,29.96,10.0,South,5.8,-,N/A,,Partly Cloudy,180,2013-08-30 20:55:00
5:15 PM,84.2,66.2,55,29.95,10.0,South,3.5,-,N/A,,Clear,180,2013-08-30 21:15:00
5:35 PM,84.2,66.2,55,29.95,10.0,South,5.8,18.4,N/A,,Clear,170,2013-08-30 21:35:00
5:55 PM,84.2,66.2,55,29.95,10.0,South,6.9,-,N/A,,Clear,170,2013-08-30 21:55:00
6:15 PM,84.2,66.2,55,29.94,10.0,South,4.6,-,N/A,,Clear,180,2013-08-30 22:15:00
6:35 PM,84.2,66.2,55,29.94,10.0,South,5.8,-,N/A,,Clear,190,2013-08-30 22:35:00
6:55 PM,82.4,66.2,58,29.93,10.0,SSW,4.6,-,N/A,,Clear,200,2013-08-30 22:55:00
7:15 PM,80.6,66.2,61,29.93,10.0,South,6.9,-,N/A,,Clear,170,2013-08-30 23:15:00
7:35 PM,80.6,66.2,61,29.93,10.0,South,5.8,-,N/A,,Clear,170,2013-08-30 23:35:00
7:55 PM,78.8,66.2,65,29.93,10.0,South,5.8,-,N/A,,Clear,170,2013-08-30 23:55:00
8:15 PM,78.8,66.2,65,29.93,10.0,South,4.6,-,N/A,,Clear,180,2013-08-31 00:15:00
8:35 PM,78.8,68.0,69,29.93,10.0,South,3.5,-,N/A,,Clear,170,2013-08-31 00:35:00
8:55 PM,77.0,68.0,74,29.93,10.0,South,5.8,-,N/A,,Clear,170,2013-08-31 00:55:00
9:15 PM,77.0,66.2,69,29.94,10.0,South,4.6,-,N/A,,Clear,180,2013-08-31 01:15:00
9:35 PM,75.2,66.2,73,29.95,10.0,Calm,Calm,-,N/A,,Clear,0,2013-08-31 01:35:00
9:55 PM,75.2,66.2,73,29.95,10.0,South,3.5,-,N/A,,Clear,190,2013-08-31 01:55:00
10:15 PM,75.2,66.2,73,29.96,10.0,SSW,3.5,-,N/A,,Clear,200,2013-08-31 02:15:00
10:35 PM,75.2,66.2,73,29.96,10.0,South,3.5,-,N/A,,Clear,170,2013-08-31 02:35:00
10:55 PM,75.2,66.2,73,29.96,10.0,South,4.6,-,N/A,,Clear,170,2013-08-31 02:55:00
11:15 PM,75.2,66.2,73,29.96,10.0,South,5.8,-,N/A,,Clear,190,2013-08-31 03:15:00
11:35 PM,75.2,68.0,78,29.96,10.0,South,6.9,-,N/A,,Clear,190,2013-08-31 03:35:00
11:55 PM,75.2,68.0,78,29.95,10.0,South,4.6,-,N/A,,Partly Cloudy,170,2013-08-31 03:55:00